Time,TemperatureF,DewpointF,PressureIn,WindDirection,WindDirectionDegrees,WindSpeedMPH,WindSpeedGustMPH,Humidity,HourlyPrecipIn,Conditions,Clouds,dailyrainin,SoftwareType,DateUTC
2016-02-14 00:02:00,-0.9,-16.2,30.19,NNE,33,5.0,11.0,47,0.00,,,0.00,meteohub,2016-02-14 05:02:00,
2016-02-14 00:07:00,-0.9,-16.8,30.18,ENE,75,5.0,13.0,46,0.00,,,0.00,meteohub,2016-02-14 05:07:00,
2016-02-14 00:12:00,-1.1,-17.0,30.19,East,91,1.0,13.0,46,0.00,,,0.00,meteohub,2016-02-14 05:12:00,
2016-02-14 00:17:00,-1.1,-17.0,30.19,East,80,5.0,12.0,46,0.00,,,0.00,meteohub,2016-02-14 05:17:00,
2016-02-14 00:22:00,-1.1,-17.0,30.19,NNE,20,3.0,12.0,46,0.00,,,0.00,meteohub,2016-02-14 05:22:00,
2016-02-14 00:27:00,-1.1,-16.4,30.19,NNE,17,1.0,11.0,47,0.00,,,0.00,meteohub,2016-02-14 05:27:00,
2016-02-14 00:32:00,-1.3,-16.6,30.19,NNE,19,3.0,11.0,47,0.00,,,0.00,meteohub,2016-02-14 05:32:00,
2016-02-14 00:37:00,-1.5,-16.8,30.19,East,82,3.0,9.0,47,0.00,,,0.00,meteohub,2016-02-14 05:37:00,
2016-02-14 00:42:00,-1.5,-16.8,30.20,NNE,32,2.0,9.0,47,0.00,,,0.00,meteohub,2016-02-14 05:42:00,
2016-02-14 00:47:00,-1.7,-17.0,30.20,NNE,28,5.0,10.0,47,0.00,,,0.00,meteohub,2016-02-14 05:47:00,
2016-02-14 00:52:00,-1.7,-16.6,30.20,NW,317,4.0,10.0,48,0.00,,,0.00,meteohub,2016-02-14 05:52:00,
2016-02-14 00:57:00,-1.7,-17.0,30.20,NNE,15,3.0,10.0,47,0.00,,,0.00,meteohub,2016-02-14 05:57:00,
2016-02-14 01:02:00,-1.8,-16.8,30.20,NE,49,2.0,10.0,48,0.00,,,0.00,meteohub,2016-02-14 06:02:00,
2016-02-14 01:07:00,-1.8,-16.4,30.21,NE,51,6.0,12.0,49,0.00,,,0.00,meteohub,2016-02-14 06:07:00,
2016-02-14 01:12:00,-2.0,-17.0,30.21,ENE,75,4.0,12.0,48,0.00,,,0.00,meteohub,2016-02-14 06:12:00,
2016-02-14 01:17:00,-2.0,-17.0,30.20,ENE,76,8.0,13.0,48,0.00,,,0.00,meteohub,2016-02-14 06:17:00,
2016-02-14 01:22:00,-2.0,-17.0,30.20,NE,56,2.0,13.0,48,0.00,,,0.00,meteohub,2016-02-14 06:22:00,
2016-02-14 01:27:00,-2.2,-16.6,30.21,ENE,73,4.0,11.0,49,0.00,,,0.00,meteohub,2016-02-14 06:27:00,
2016-02-14 01:32:00,-2.2,-16.2,30.21,East,82,5.0,13.0,50,0.00,,,0.00,meteohub,2016-02-14 06:32:00,
2016-02-14 01:37:00,-2.4,-16.4,30.21,ENE,70,11.0,13.0,50,0.00,,,0.00,meteohub,2016-02-14 06:37:00,
2016-02-14 01:42:00,-2.6,-16.6,30.21,ESE,113,0.0,11.0,50,0.00,,,0.00,meteohub,2016-02-14 06:42:00,
2016-02-14 01:47:00,-2.6,-16.6,30.21,East,80,9.0,11.0,50,0.00,,,0.00,meteohub,2016-02-14 06:47:00,
2016-02-14 01:52:00,-2.6,-16.2,30.21,ENE,75,4.0,11.0,51,0.00,,,0.00,meteohub,2016-02-14 06:52:00,
2016-02-14 02:02:00,-2.7,-16.4,30.22,NE,43,4.0,11.0,51,0.00,,,0.00,meteohub,2016-02-14 07:02:00,
2016-02-14 02:07:00,-2.7,-16.4,30.22,East,83,2.0,12.0,51,0.00,,,0.00,meteohub,2016-02-14 07:07:00,
2016-02-14 02:12:00,-2.9,-16.2,30.22,ENE,71,4.0,12.0,52,0.00,,,0.00,meteohub,2016-02-14 07:12:00,
2016-02-14 02:17:00,-3.1,-16.1,30.22,East,86,0.0,12.0,53,0.00,,,0.00,meteohub,2016-02-14 07:17:00,
2016-02-14 02:22:00,-3.3,-16.1,30.22,NE,46,2.0,10.0,53,0.00,,,0.00,meteohub,2016-02-14 07:22:00,
2016-02-14 02:27:00,-3.5,-16.2,30.22,East,88,3.0,10.0,53,0.00,,,0.00,meteohub,2016-02-14 07:27:00,
2016-02-14 02:32:00,-3.5,-16.2,30.23,East,88,5.0,13.0,53,0.00,,,0.00,meteohub,2016-02-14 07:32:00,
2016-02-14 02:37:00,-3.6,-16.8,30.23,ENE,65,9.0,13.0,52,0.00,,,0.00,meteohub,2016-02-14 07:37:00,
2016-02-14 02:42:00,-3.8,-17.0,30.23,ESE,107,5.0,13.0,52,0.00,,,0.00,meteohub,2016-02-14 07:42:00,
2016-02-14 02:47:00,-4.0,-17.1,30.24,NNW,331,5.0,13.0,52,0.00,,,0.00,meteohub,2016-02-14 07:47:00,
2016-02-14 02:52:00,-4.4,-17.5,30.24,SE,139,4.0,13.0,52,0.00,,,0.00,meteohub,2016-02-14 07:52:00,
2016-02-14 02:57:00,-4.4,-17.5,30.23,ENE,63,1.0,13.0,52,0.00,,,0.00,meteohub,2016-02-14 07:57:00,
2016-02-14 03:02:00,-4.5,-17.7,30.24,East,80,6.0,12.0,52,0.00,,,0.00,meteohub,2016-02-14 08:02:00,
2016-02-14 03:07:00,-4.9,-18.0,30.24,East,89,1.0,12.0,52,0.00,,,0.00,meteohub,2016-02-14 08:07:00,
2016-02-14 03:12:00,-5.1,-17.9,30.24,NE,50,2.0,11.0,53,0.00,,,0.00,meteohub,2016-02-14 08:12:00,
2016-02-14 03:17:00,-5.3,-18.0,30.25,NNW,332,7.0,11.0,53,0.00,,,0.00,meteohub,2016-02-14 08:17:00,
2016-02-14 03:22:00,-5.4,-18.6,30.25,East,80,2.0,12.0,52,0.00,,,0.00,meteohub,2016-02-14 08:22:00,
2016-02-14 03:27:00,-5.6,-18.8,30.25,NW,307,3.0,12.0,52,0.00,,,0.00,meteohub,2016-02-14 08:27:00,
2016-02-14 03:32:00,-5.8,-18.9,30.25,ENE,73,4.0,12.0,52,0.00,,,0.00,meteohub,2016-02-14 08:32:00,
2016-02-14 03:37:00,-6.0,-19.1,30.25,East,97,5.0,11.0,52,0.00,,,0.00,meteohub,2016-02-14 08:37:00,
2016-02-14 03:42:00,-6.2,-19.1,30.26,ENE,70,4.0,13.0,52,0.00,,,0.00,meteohub,2016-02-14 08:42:00,
2016-02-14 03:47:00,-6.3,-19.3,30.25,East,80,5.0,18.0,52,0.00,,,0.00,meteohub,2016-02-14 08:47:00,
2016-02-14 03:52:00,-6.5,-19.5,30.26,ENE,65,7.0,18.0,52,0.00,,,0.00,meteohub,2016-02-14 08:52:00,
2016-02-14 03:57:00,-6.5,-19.1,30.26,NNE,32,1.0,18.0,53,0.00,,,0.00,meteohub,2016-02-14 08:57:00,
2016-02-14 04:02:00,-6.5,-19.1,30.26,NNW,346,3.0,13.0,53,0.00,,,0.00,meteohub,2016-02-14 09:02:00,
2016-02-14 04:07:00,-6.9,-19.5,30.27,ENE,61,2.0,12.0,53,0.00,,,0.00,meteohub,2016-02-14 09:07:00,
2016-02-14 04:12:00,-6.9,-19.5,30.27,East,90,8.0,12.0,53,0.00,,,0.00,meteohub,2016-02-14 09:12:00,
2016-02-14 04:17:00,-7.1,-19.3,30.27,ESE,103,3.0,10.0,54,0.00,,,0.00,meteohub,2016-02-14 09:17:00,
2016-02-14 04:22:00,-7.1,-19.7,30.27,ENE,74,4.0,12.0,53,0.00,,,0.00,meteohub,2016-02-14 09:22:00,
2016-02-14 04:27:00,-7.2,-19.8,30.27,NE,34,4.0,14.0,53,0.00,,,0.00,meteohub,2016-02-14 09:27:00,
2016-02-14 04:32:00,-7.4,-19.7,30.27,NE,43,3.0,14.0,54,0.00,,,0.00,meteohub,2016-02-14 09:32:00,
2016-02-14 04:37:00,-7.4,-19.7,30.28,NE,43,4.0,14.0,54,0.00,,,0.00,meteohub,2016-02-14 09:37:00,
2016-02-14 04:42:00,-7.4,-19.7,30.28,NE,51,5.0,10.0,54,0.00,,,0.00,meteohub,2016-02-14 09:42:00,
2016-02-14 04:47:00,-7.6,-19.8,30.29,SE,133,7.0,11.0,54,0.00,,,0.00,meteohub,2016-02-14 09:47:00,
2016-02-14 04:52:00,-7.8,-20.0,30.29,ESE,103,3.0,12.0,54,0.00,,,0.00,meteohub,2016-02-14 09:52:00,
2016-02-14 04:57:00,-7.8,-20.0,30.29,NNW,346,5.0,12.0,54,0.00,,,0.00,meteohub,2016-02-14 09:57:00,
2016-02-14 05:02:00,-8.0,-19.8,30.30,East,80,1.0,12.0,55,0.00,,,0.00,meteohub,2016-02-14 10:02:00,
2016-02-14 05:07:00,-8.0,-19.8,30.30,ENE,76,2.0,8.0,55,0.00,,,0.00,meteohub,2016-02-14 10:07:00,
2016-02-14 05:12:00,-8.0,-19.8,30.30,ENE,70,2.0,8.0,55,0.00,,,0.00,meteohub,2016-02-14 10:12:00,
2016-02-14 05:17:00,-8.1,-20.0,30.30,East,83,2.0,9.0,55,0.00,,,0.00,meteohub,2016-02-14 10:17:00,
2016-02-14 05:22:00,-8.1,-19.7,30.30,East,85,1.0,9.0,56,0.00,,,0.00,meteohub,2016-02-14 10:22:00,
2016-02-14 05:27:00,-8.1,-19.7,30.31,SE,129,2.0,9.0,56,0.00,,,0.00,meteohub,2016-02-14 10:27:00,
2016-02-14 05:32:00,-8.1,-19.7,30.30,NE,52,1.0,8.0,56,0.00,,,0.00,meteohub,2016-02-14 10:32:00,
2016-02-14 05:37:00,-8.3,-19.5,30.31,NE,49,3.0,7.0,57,0.00,,,0.00,meteohub,2016-02-14 10:37:00,
2016-02-14 05:42:00,-8.3,-19.5,30.31,ENE,73,1.0,6.0,57,0.00,,,0.00,meteohub,2016-02-14 10:42:00,
2016-02-14 05:47:00,-8.3,-19.5,30.31,NE,42,2.0,9.0,57,0.00,,,0.00,meteohub,2016-02-14 10:47:00,
2016-02-14 05:52:00,-8.3,-19.8,30.31,ENE,76,8.0,10.0,56,0.00,,,0.00,meteohub,2016-02-14 10:52:00,
2016-02-14 05:57:00,-8.3,-19.5,30.31,ENE,60,1.0,10.0,57,0.00,,,0.00,meteohub,2016-02-14 10:57:00,
2016-02-14 06:02:00,-8.3,-19.8,30.32,East,82,1.0,9.0,56,0.00,,,0.00,meteohub,2016-02-14 11:02:00,
2016-02-14 06:07:00,-8.5,-20.0,30.32,NNW,336,4.0,10.0,56,0.00,,,0.00,meteohub,2016-02-14 11:07:00,
2016-02-14 06:12:00,-8.5,-19.7,30.32,ENE,57,4.0,10.0,57,0.00,,,0.00,meteohub,2016-02-14 11:12:00,
2016-02-14 06:17:00,-8.7,-20.2,30.32,East,97,6.0,9.0,56,0.00,,,0.00,meteohub,2016-02-14 11:17:00,
2016-02-14 06:22:00,-8.7,-20.2,30.33,NE,52,4.0,10.0,56,0.00,,,0.00,meteohub,2016-02-14 11:22:00,
2016-02-14 06:27:00,-8.7,-20.2,30.33,ENE,61,4.0,13.0,56,0.00,,,0.00,meteohub,2016-02-14 11:27:00,
2016-02-14 06:32:00,-8.9,-20.4,30.33,NNE,24,1.0,13.0,56,0.00,,,0.00,meteohub,2016-02-14 11:32:00,
2016-02-14 06:37:00,-8.9,-20.4,30.34,NE,51,3.0,13.0,56,0.00,,,0.00,meteohub,2016-02-14 11:37:00,
2016-02-14 06:42:00,-8.9,-20.4,30.33,ENE,57,4.0,11.0,56,0.00,,,0.00,meteohub,2016-02-14 11:42:00,
2016-02-14 06:47:00,-8.9,-20.4,30.34,NE,42,1.0,11.0,56,0.00,,,0.00,meteohub,2016-02-14 11:47:00,
2016-02-14 06:52:00,-8.9,-20.4,30.35,ENE,73,3.0,10.0,56,0.00,,,0.00,meteohub,2016-02-14 11:52:00,
2016-02-14 06:57:00,-8.9,-20.4,30.35,NNE,31,3.0,11.0,56,0.00,,,0.00,meteohub,2016-02-14 11:57:00,
2016-02-14 07:02:00,-8.9,-20.4,30.35,ENE,77,2.0,11.0,56,0.00,,,0.00,meteohub,2016-02-14 12:02:00,
2016-02-14 07:07:00,-8.9,-20.7,30.35,East,87,1.0,11.0,55,0.00,,,0.00,meteohub,2016-02-14 12:07:00,
2016-02-14 07:12:00,-8.9,-20.7,30.35,NNE,32,5.0,13.0,55,0.00,,,0.00,meteohub,2016-02-14 12:12:00,
2016-02-14 07:17:00,-8.7,-20.6,30.35,ENE,69,5.0,13.0,55,0.00,,,0.00,meteohub,2016-02-14 12:17:00,
2016-02-14 07:22:00,-8.5,-20.4,30.36,NE,51,3.0,13.0,55,0.00,,,0.00,meteohub,2016-02-14 12:22:00,
2016-02-14 07:27:00,-8.3,-20.2,30.37,East,82,7.0,13.0,55,0.00,,,0.00,meteohub,2016-02-14 12:27:00,
2016-02-14 07:32:00,-8.1,-20.0,30.37,ENE,60,3.0,10.0,55,0.00,,,0.00,meteohub,2016-02-14 12:32:00,
2016-02-14 07:37:00,-8.0,-20.2,30.37,East,86,3.0,10.0,54,0.00,,,0.00,meteohub,2016-02-14 12:37:00,
2016-02-14 07:42:00,-7.8,-20.0,30.37,ENE,69,2.0,10.0,54,0.00,,,0.00,meteohub,2016-02-14 12:42:00,
2016-02-14 07:47:00,-7.4,-19.7,30.38,East,81,6.0,11.0,54,0.00,,,0.00,meteohub,2016-02-14 12:47:00,
2016-02-14 07:52:00,-7.2,-19.8,30.38,ENE,77,7.0,12.0,53,0.00,,,0.00,meteohub,2016-02-14 12:52:00,
2016-02-14 07:57:00,-6.9,-19.1,30.38,East,87,5.0,12.0,54,0.00,,,0.00,meteohub,2016-02-14 12:57:00,
2016-02-14 08:02:00,-6.5,-18.8,30.39,ENE,65,1.0,12.0,54,0.00,,,0.00,meteohub,2016-02-14 13:02:00,
2016-02-14 08:07:00,-6.3,-18.9,30.39,East,80,6.0,11.0,53,0.00,,,0.00,meteohub,2016-02-14 13:07:00,
2016-02-14 08:12:00,-6.2,-18.8,30.40,East,79,3.0,11.0,53,0.00,,,0.00,meteohub,2016-02-14 13:12:00,
2016-02-14 08:17:00,-6.0,-18.8,30.40,ESE,105,1.0,10.0,53,0.00,,,0.00,meteohub,2016-02-14 13:17:00,
2016-02-14 08:22:00,-5.4,-18.2,30.40,East,84,1.0,10.0,53,0.00,,,0.00,meteohub,2016-02-14 13:22:00,
2016-02-14 08:27:00,-5.3,-18.0,30.40,ENE,71,7.0,10.0,53,0.00,,,0.00,meteohub,2016-02-14 13:27:00,
2016-02-14 08:32:00,-5.3,-18.8,30.40,ENE,74,3.0,11.0,51,0.00,,,0.00,meteohub,2016-02-14 13:32:00,
2016-02-14 08:42:00,-4.5,-18.0,30.40,NE,51,4.0,11.0,51,0.00,,,0.00,meteohub,2016-02-14 13:42:00,
2016-02-14 08:47:00,-4.2,-17.3,30.40,East,82,7.0,10.0,52,0.00,,,0.00,meteohub,2016-02-14 13:47:00,
2016-02-14 08:52:00,-4.2,-17.7,30.40,ENE,71,10.0,10.0,51,0.00,,,0.00,meteohub,2016-02-14 13:52:00,
2016-02-14 08:57:00,-4.2,-17.7,30.41,East,85,6.0,12.0,51,0.00,,,0.00,meteohub,2016-02-14 13:57:00,
2016-02-14 09:02:00,-4.0,-18.0,30.41,East,92,7.0,12.0,50,0.00,,,0.00,meteohub,2016-02-14 14:02:00,
2016-02-14 09:07:00,-3.8,-17.3,30.41,East,84,2.0,12.0,51,0.00,,,0.00,meteohub,2016-02-14 14:07:00,
2016-02-14 09:12:00,-3.3,-16.6,30.41,ESE,105,4.0,12.0,52,0.00,,,0.00,meteohub,2016-02-14 14:12:00,
2016-02-14 09:17:00,-2.9,-15.9,30.41,NE,39,5.0,12.0,53,0.00,,,0.00,meteohub,2016-02-14 14:17:00,
2016-02-14 09:22:00,-2.7,-15.7,30.41,ENE,64,3.0,11.0,53,0.00,,,0.00,meteohub,2016-02-14 14:22:00,
2016-02-14 09:27:00,-2.7,-15.3,30.41,ENE,65,4.0,14.0,54,0.00,,,0.00,meteohub,2016-02-14 14:27:00,
2016-02-14 09:32:00,-2.6,-15.2,30.41,East,80,3.0,14.0,54,0.00,,,0.00,meteohub,2016-02-14 14:32:00,
2016-02-14 09:37:00,-2.0,-13.9,30.41,East,82,11.0,14.0,56,0.00,,,0.00,meteohub,2016-02-14 14:37:00,
2016-02-14 09:42:00,-1.8,-14.1,30.41,East,80,5.0,14.0,55,0.00,,,0.00,meteohub,2016-02-14 14:42:00,
2016-02-14 09:47:00,-1.7,-13.9,30.41,East,89,2.0,14.0,55,0.00,,,0.00,meteohub,2016-02-14 14:47:00,
2016-02-14 09:52:00,-0.9,-12.8,30.41,ENE,72,5.0,14.0,56,0.00,,,0.00,meteohub,2016-02-14 14:52:00,
2016-02-14 09:57:00,-0.8,-13.0,30.41,ENE,67,5.0,13.0,55,0.00,,,0.00,meteohub,2016-02-14 14:57:00,
2016-02-14 10:02:00,-0.8,-13.0,30.41,East,82,5.0,12.0,55,0.00,,,0.00,meteohub,2016-02-14 15:02:00,
2016-02-14 10:07:00,-0.2,-12.5,30.41,East,88,8.0,17.0,55,0.00,,,0.00,meteohub,2016-02-14 15:07:00,
2016-02-14 10:12:00,0.0,-12.8,30.42,East,100,8.0,17.0,54,0.00,,,0.00,meteohub,2016-02-14 15:12:00,
2016-02-14 10:17:00,0.7,-12.1,30.41,ENE,59,3.0,17.0,54,0.00,,,0.00,meteohub,2016-02-14 15:17:00,
2016-02-14 10:22:00,0.5,-12.6,30.41,ENE,61,2.0,10.0,53,0.00,,,0.00,meteohub,2016-02-14 15:22:00,
2016-02-14 10:27:00,0.9,-11.9,30.41,ENE,67,4.0,17.0,54,0.00,,,0.00,meteohub,2016-02-14 15:27:00,
2016-02-14 10:32:00,1.6,-11.6,30.42,East,82,1.0,17.0,53,0.00,,,0.00,meteohub,2016-02-14 15:32:00,
2016-02-14 10:37:00,1.8,-11.7,30.42,ESE,113,5.0,11.0,52,0.00,,,0.00,meteohub,2016-02-14 15:37:00,
2016-02-14 10:47:00,2.7,-11.0,30.42,ESE,119,2.0,9.0,52,0.00,,,0.00,meteohub,2016-02-14 15:47:00,
2016-02-14 10:52:00,3.0,-10.7,30.42,North,0,3.0,10.0,52,0.00,,,0.00,meteohub,2016-02-14 15:52:00,
2016-02-14 10:57:00,3.2,-10.8,30.43,NE,47,2.0,10.0,51,0.00,,,0.00,meteohub,2016-02-14 15:57:00,